ICEYE-X9 (47506 NORAD) Tracking and Keplerian Element Data

This shows tracking and keplerian element data for the satellite.

Feedback or suggestion? Click here.




ElementValue
Catalog47506
NameICEYE-X9
Epoch Orbit1261
Epoch Day106.07118894
Epoch Year2021
RAAN168.3636
Inclination97.4985
Eccentricity0.0008784
Argument of Perigee330.7941
Mean Anonmoly91.6726
Mean Motion15.12222205
Decay Rate5.24E-06
L11 47506U 21006CX 21106.07118894 .00000524 00000-0 34026-4 0 9999
L22 47506 97.4985 168.3636 0008784 330.7941 91.6726 15.12222205 12616

Live tracking and technical data element details for ICEYE-X9 (NORAD 47506). ICEYE-X9 can be tracked NOW for your location showing map with azimuth and elevation plus other details from your city location.

Track the satellite on the map from your city or location and see movement details for azimuth, elevation, latitude, longitude, range, height, and movement on the map or in text.







IsCatalogInMostPopularTable: catalog: 47506, numindb: 22
Update: records affected: 1



GetName: 47506 ICEYE-X9

Hit Count: updated at: Fri, 16 Apr 2021 10:31:00 GMT